COSMOS 1275 DEB, 12674

Orbit data source: Space-Track

COSMOS 1275 DEB, 12674 is space debris in LEO originally from a launch on Thu, 04 Jun 1981 UTC launched from the Plesetsk Missile And Space Complex (PKMTR). Debris objects in space refer to the collection of defunct objects orbiting the Earth. Examples of debris include non-operational satellites, rocket bodies, and fragments generated from explosions, collisions, or faulty payload assembly.

Loading next visibility...
Identifier
12674, 1981-053AE
Orbit
LEO
Last TLE update
11 hours ago
Origin
Manufacturer
Unknown
Mission
Spacecraft
Bus & Motor
Unknown
Mass
Unknown
Launch date (UTC)
1981-06-04 (44 years ago)
Launch vehicle
Unknown
Launch site
Plesetsk Missile And Space Complex (PKMTR)
Object type
Payload
Rocket body
Debris
Shape & HBR
Unknown
Radar Cross Section
Medium (>0.1 m² and <1 m²)

Expand to show TLE details & history

TLE from 11 hours ago
0 COSMOS 1275 DEB
1 12674U 81053AE  25182.76351326  .00000509  00000-0  50297-3 0  9998
2 12674  82.9354 266.1502 0099917 239.2407 243.9920 13.74625757191677
Epoch: 2025-07-01T18:19Z
TLE epoch observation values (Epoch: 2025-07-01T18:19:27.545Z)
Latitude
57.2021°
Longitude
-119.79888°
Altitude
1,025.453 km
Speed
7.328 km/s
True Right ascension
05h 00m 28s
True Declination
57° 03' 04"
Sunlit
Object was in daylight at epoch
Visualization orbit readout
Latitude
38.87768°
Longitude
-114.79998°
Altitude
996.898 km
Speed
7.353 km/s
Apparent Right ascension
04h 59m 41s
Apparent Declination
2° 53' 58"
Sunlit
Object is in daylight
Visualization observer readout
Local Sidereal Time
16:35:17
Azimuth
351.077° N
Elevation
-46.82°
Doppler factor
1
Orbital elements
Apogee altitude
1,053.682 km
Perigee altitude
906.638 km
Semi-major axis
7,358.297 km
Eccentricity
0.00999
Inclination
82.9354°
RAAN
266.1502°
Arg. of periapsis
239.2407°
True anomaly
Unknown
Mean anomaly
243.992°
Eccentric anomaly
Unknown
Mean motion
3.43856 °/min
Orbital period
104.69 mins
BSTAR
0.00050297
Loading maneuver chart data...
Loading SW <> Apogee altitude chart data...
Loading historical data...
Loading historical data...
Loading historical data...
Loading historical data...
Loading historical data...
Loading historical data...
Loading historical data...

COSMOS 1275 DEB Visibility forecast

Observer location: undefined°, undefined°

Span
Click to sort rows by Start time (UTC) header in descending order
Start Az.
Max El. time (UTC)
Max El. Az.
Max El.
End time (UTC)
End Az.
12 mins2025-07-02 06:02:48.472Z174.13° S2025-07-02 06:08:48.472Z95.018° ESE42.999°2025-07-02 06:14:48.472Z12.904° NNE
7 mins2025-07-02 07:51:48.472Z258.087° W2025-07-02 07:54:48.472Z289.627° WNW18.391°2025-07-02 07:58:48.472Z330.358° NNW
11 mins2025-07-02 17:01:48.472Z4.675° NNE2025-07-02 17:06:48.472Z73.816° E39.377°2025-07-02 17:12:48.472Z156.268° SSE
7 mins2025-07-02 18:48:48.472Z312.799° NW2025-07-02 18:51:48.472Z278.785° WNW20.034°2025-07-02 18:55:48.472Z234.759° WSW
5 mins2025-07-03 04:48:48.472Z111.711° ESE2025-07-03 04:51:48.472Z79.576° E18.19°2025-07-03 04:53:48.472Z57.735° ENE
|